| time (UTC) | temp F | wind direction | speed MPH | gust MPH | rain 1hr in | rain 24hr in | rain mn in | humidity % | barometer mb |
| 20260506024139 | 60 | 358 | 1.0 | 3.0 | 0.00 | 0.00 | 0.00 | 78 | 1014.3 |
| 20260506023239 | 60 | 309 | 1.0 | 4.0 | 0.00 | 0.00 | 0.00 | 77 | 1014.3 |
| 20260506023110 | 60 | 253 | 1.0 | 6.0 | 0.00 | 0.00 | 0.00 | 77 | 1014.9 |
| 20260506022339 | 61 | 255 | 2.0 | 5.0 | 0.00 | 0.00 | 0.00 | 76 | 1014.4 |
| 20260506021502 | 62 | 250 | 2.0 | 5.0 | 0.00 | 0.00 | 0.00 | 74 | 1015.0 |
| 20260506021438 | 62 | 289 | 1.0 | 5.0 | 0.00 | 0.00 | 0.00 | 74 | 1014.4 |
| 20260506015639 | 64 | 305 | 2.0 | 4.0 | 0.00 | 0.00 | 0.00 | 73 | 1014.3 |
| 20260506014738 | 64 | 282 | 2.0 | 6.0 | 0.00 | 0.00 | 0.00 | 72 | 1014.3 |
| 20260506014501 | 64 | 328 | 2.0 | 6.0 | 0.00 | 0.00 | 0.00 | 71 | 1014.8 |
| 20260506013838 | 65 | 274 | 1.0 | 5.0 | 0.00 | 0.00 | 0.00 | 71 | 1014.2 |
| 20260506013111 | 65 | 303 | 0.0 | 4.0 | 0.00 | 0.00 | 0.00 | 70 | 1014.7 |
| 20260506012938 | 66 | 252 | 1.0 | 4.0 | 0.00 | 0.00 | 0.00 | 70 | 1014.3 |
| 20260506012039 | 66 | 252 | 1.0 | 6.0 | 0.00 | 0.00 | 0.00 | 70 | 1014.1 |
| 20260506011501 | 65 | 243 | 1.0 | 4.0 | 0.00 | 0.00 | 0.00 | 70 | 1014.7 |
| 20260506010238 | 66 | 268 | 1.0 | 4.0 | 0.00 | 0.00 | 0.00 | 71 | 1014.2 |
| 20260506010103 | 65 | 156 | 1.0 | 4.0 | 0.00 | 0.00 | 0.00 | 71 | 1014.7 |
| 20260506005338 | 65 | 264 | 1.0 | 5.0 | 0.00 | 0.00 | 0.00 | 70 | 1014.3 |
| 20260506004503 | 65 | 185 | 1.0 | 7.0 | 0.00 | 0.00 | 0.00 | 71 | 1014.9 |
| 20260506004439 | 65 | 257 | 2.0 | 7.0 | 0.00 | 0.00 | 0.00 | 71 | 1014.4 |
| 20260506003538 | 65 | 271 | 2.0 | 6.0 | 0.00 | 0.00 | 0.00 | 70 | 1014.4 |
| 20260506003105 | 65 | 288 | 1.0 | 6.0 | 0.00 | 0.00 | 0.00 | 73 | 1014.8 |
| 20260506002638 | 64 | 277 | 2.0 | 5.0 | 0.00 | 0.00 | 0.00 | 74 | 1014.4 |
| 20260506001502 | 64 | 339 | 2.0 | 4.0 | 0.00 | 0.00 | 0.00 | 73 | 1014.9 |
| 20260506000839 | 64 | 277 | 2.0 | 6.0 | 0.00 | 0.00 | 0.00 | 74 | 1014.5 |
| 20260505235939 | 64 | 260 | 2.0 | 7.0 | 0.00 | 0.00 | 0.00 | 75 | 1014.5 |
| 20260505235038 | 64 | 288 | 2.0 | 8.0 | 0.00 | 0.00 | 0.00 | 74 | 1014.6 |
| 20260505234502 | 63 | 34 | 1.0 | 8.0 | 0.00 | 0.00 | 0.00 | 75 | 1015.2 |
| 20260505234139 | 63 | 302 | 1.0 | 7.0 | 0.00 | 0.00 | 0.00 | 74 | 1014.7 |
| 20260505233239 | 64 | 260 | 1.0 | 5.0 | 0.00 | 0.00 | 0.00 | 73 | 1014.9 |
| 20260505233106 | 64 | 257 | 0.0 | 4.0 | 0.00 | 0.00 | 0.00 | 73 | 1015.3 |
| 20260505232339 | 64 | 291 | 1.0 | 5.0 | 0.00 | 0.00 | 0.00 | 73 | 1014.9 |
| 20260505231502 | 63 | 216 | 0.0 | 4.0 | 0.00 | 0.00 | 0.00 | 74 | 1015.3 |
| 20260505231439 | 64 | 277 | 1.0 | 4.0 | 0.00 | 0.00 | 0.00 | 74 | 1014.7 |
| 20260505230539 | 64 | 200 | 2.0 | 5.0 | 0.00 | 0.00 | 0.00 | 74 | 1014.9 |
| 20260505225639 | 64 | 240 | 1.0 | 7.0 | 0.00 | 0.00 | 0.00 | 73 | 1014.9 |
| 20260505224739 | 63 | 242 | 1.0 | 6.0 | 0.00 | 0.00 | 0.00 | 74 | 1015.0 |
| 20260505224502 | 63 | 187 | 0.0 | 6.0 | 0.00 | 0.00 | 0.00 | 74 | 1015.6 |
| 20260505223839 | 63 | 266 | 1.0 | 6.0 | 0.00 | 0.00 | 0.00 | 76 | 1015.1 |
| 20260505223102 | 63 | 307 | 1.0 | 6.0 | 0.00 | 0.00 | 0.00 | 74 | 1015.8 |
| 20260505222939 | 63 | 277 | 1.0 | 5.0 | 0.00 | 0.00 | 0.00 | 74 | 1015.1 |
| 20260505222040 | 63 | 226 | 1.0 | 4.0 | 0.00 | 0.00 | 0.00 | 75 | 1015.3 |
| 20260505221503 | 63 | 134 | 1.0 | 4.0 | 0.00 | 0.00 | 0.00 | 75 | 1015.7 |
| 20260505221139 | 63 | 291 | 1.0 | 4.0 | 0.00 | 0.00 | 0.00 | 74 | 1015.3 |
| 20260505220103 | 63 | 261 | 0.0 | 4.0 | 0.00 | 0.00 | 0.00 | 75 | 1015.8 |
| 20260505215339 | 63 | 301 | 1.0 | 4.0 | 0.00 | 0.00 | 0.00 | 74 | 1015.4 |
| 20260505214502 | 62 | 339 | 0.0 | 4.0 | 0.00 | 0.00 | 0.00 | 73 | 1015.8 |
| 20260505214439 | 63 | 285 | 0.0 | 4.0 | 0.00 | 0.00 | 0.00 | 73 | 1015.4 |
| 20260505213539 | 63 | 165 | 0.0 | 1.0 | 0.00 | 0.00 | 0.00 | 74 | 1015.6 |
| 20260505213102 | 63 | 169 | 0.0 | 2.0 | 0.00 | 0.00 | 0.00 | 74 | 1016.1 |
| 20260505212639 | 63 | 0 | 0.0 | 4.0 | 0.00 | 0.00 | 0.00 | 74 | 1015.5 |
| 20260505211739 | 62 | 216 | 1.0 | 4.0 | 0.00 | 0.00 | 0.00 | 76 | 1015.7 |
| 20260505211508 | 62 | 228 | 0.0 | 4.0 | 0.00 | 0.00 | 0.00 | 75 | 1016.3 |
| 20260505210839 | 62 | 223 | 1.0 | 3.0 | 0.00 | 0.00 | 0.00 | 76 | 1015.6 |
| 20260505205939 | 62 | 177 | 1.0 | 4.0 | 0.00 | 0.00 | 0.00 | 76 | 1015.7 |
| 20260505205039 | 62 | 157 | 0.0 | 3.0 | 0.00 | 0.00 | 0.00 | 75 | 1015.6 |
| 20260505204503 | 62 | 148 | 0.0 | 2.0 | 0.00 | 0.00 | 0.00 | 76 | 1016.1 |
| 20260505204139 | 62 | 0 | 0.0 | 3.0 | 0.00 | 0.00 | 0.00 | 74 | 1015.7 |
| 20260505203239 | 62 | 167 | 1.0 | 3.0 | 0.00 | 0.00 | 0.00 | 76 | 1015.6 |
| 20260505203125 | 61 | 174 | 0.0 | 4.0 | 0.00 | 0.00 | 0.00 | 76 | 1016.1 |
| 20260505201502 | 61 | 164 | 1.0 | 3.0 | 0.00 | 0.00 | 0.00 | 77 | 1016.0 |
| 20260505201439 | 62 | 167 | 1.0 | 3.0 | 0.00 | 0.00 | 0.00 | 76 | 1015.6 |
| 20260505200539 | 61 | 145 | 1.0 | 6.0 | 0.00 | 0.00 | 0.00 | 77 | 1015.6 |
| 20260505195639 | 61 | 146 | 2.0 | 4.0 | 0.00 | 0.00 | 0.00 | 77 | 1015.5 |
| 20260505194739 | 60 | 129 | 2.0 | 6.0 | 0.00 | 0.00 | 0.00 | 78 | 1015.6 |
| 20260505194502 | 60 | 129 | 3.0 | 6.0 | 0.00 | 0.00 | 0.00 | 77 | 1016.1 |
| 20260505193839 | 61 | 149 | 1.0 | 6.0 | 0.00 | 0.00 | 0.00 | 76 | 1015.6 |
| 20260505193103 | 60 | 207 | 1.0 | 4.0 | 0.00 | 0.00 | 0.00 | 76 | 1016.1 |
| 20260505192939 | 61 | 144 | 2.0 | 4.0 | 0.00 | 0.00 | 0.00 | 76 | 1015.7 |
| 20260505192039 | 60 | 158 | 1.0 | 6.0 | 0.00 | 0.00 | 0.00 | 77 | 1015.6 |
| 20260505191508 | 60 | 173 | 1.0 | 5.0 | 0.00 | 0.00 | 0.00 | 76 | 1016.0 |
| 20260505191139 | 60 | 152 | 1.0 | 4.0 | 0.00 | 0.00 | 0.00 | 77 | 1015.5 |
| 20260505184504 | 59 | 229 | 0.0 | 2.0 | 0.00 | 0.00 | 0.00 | 77 | 1016.1 |
| 20260505183539 | 60 | 202 | 0.0 | 4.0 | 0.00 | 0.00 | 0.00 | 77 | 1015.6 |
| 20260505183102 | 59 | 174 | 1.0 | 4.0 | 0.00 | 0.00 | 0.00 | 77 | 1016.1 |
| 20260505182639 | 60 | 0 | 0.0 | 2.0 | 0.00 | 0.00 | 0.00 | 77 | 1015.6 |
| 20260505181740 | 60 | 155 | 0.0 | 2.0 | 0.00 | 0.00 | 0.00 | 78 | 1015.5 |
| 20260505181502 | 59 | 201 | 0.0 | 2.0 | 0.00 | 0.00 | 0.00 | 79 | 1016.0 |
| 20260505180839 | 59 | 153 | 1.0 | 3.0 | 0.00 | 0.00 | 0.00 | 79 | 1015.5 |
| 20260505180104 | 58 | 127 | 1.0 | 4.0 | 0.00 | 0.00 | 0.00 | 79 | 1016.0 |
| 20260505175939 | 59 | 155 | 1.0 | 4.0 | 0.00 | 0.00 | 0.00 | 79 | 1015.4 |
| 20260505175039 | 58 | 166 | 1.0 | 2.0 | 0.00 | 0.00 | 0.00 | 81 | 1015.4 |
| 20260505174506 | 58 | 181 | 0.0 | 3.0 | 0.00 | 0.00 | 0.00 | 80 | 1016.0 |
| 20260505174139 | 58 | 176 | 1.0 | 4.0 | 0.00 | 0.00 | 0.00 | 80 | 1015.5 |
| 20260505173239 | 58 | 170 | 1.0 | 4.0 | 0.00 | 0.00 | 0.00 | 80 | 1015.4 |
| 20260505173102 | 58 | 209 | 0.0 | 3.0 | 0.00 | 0.00 | 0.00 | 80 | 1015.8 |
| 20260505172339 | 58 | 167 | 1.0 | 4.0 | 0.00 | 0.00 | 0.00 | 80 | 1015.3 |
| 20260505171505 | 57 | 193 | 0.0 | 3.0 | 0.00 | 0.00 | 0.00 | 81 | 1015.7 |
| 20260505171439 | 58 | 153 | 1.0 | 3.0 | 0.00 | 0.00 | 0.00 | 81 | 1015.2 |
| 20260505170539 | 58 | 161 | 1.0 | 5.0 | 0.00 | 0.00 | 0.00 | 82 | 1015.1 |
| 20260505170112 | 57 | 172 | 0.0 | 5.0 | 0.00 | 0.00 | 0.00 | 81 | 1015.6 |
| 20260505165639 | 58 | 0 | 0.0 | 0.0 | 0.00 | 0.00 | 0.00 | 80 | 1015.2 |
| 20260505163045 | 57 | 128 | 0.0 | 4.0 | 0.00 | 0.00 | 0.00 | 82 | 1014.9 |
| 20260505163002 | 57 | 133 | 0.0 | 4.0 | 0.00 | 0.00 | 0.00 | 82 | 1015.4 |
| 20260505162145 | 57 | 142 | 1.0 | 3.0 | 0.00 | 0.00 | 0.00 | 83 | 1014.9 |
| 20260505161616 | 56 | 155 | 0.0 | 3.0 | 0.00 | 0.00 | 0.00 | 83 | 1015.3 |
| 20260505161245 | 57 | 151 | 0.0 | 3.0 | 0.00 | 0.00 | 0.00 | 83 | 1014.8 |
| 20260505160345 | 56 | 144 | 2.0 | 5.0 | 0.00 | 0.00 | 0.00 | 84 | 1014.9 |
| 20260505153002 | 56 | 145 | 0.0 | 4.0 | 0.00 | 0.00 | 0.00 | 84 | 1015.0 |
| 20260505151606 | 56 | 146 | 1.0 | 3.0 | 0.00 | 0.00 | 0.00 | 85 | 1015.1 |
| 20260505150945 | 56 | 142 | 0.0 | 3.0 | 0.00 | 0.00 | 0.00 | 85 | 1014.5 |
| 20260505140645 | 55 | 0 | 0.0 | 0.0 | 0.00 | 0.00 | 0.00 | 88 | 1014.2 |
| 20260505124604 | 54 | 160 | 0.0 | 0.0 | 0.00 | 0.00 | 0.00 | 88 | 1014.0 |
| 20260505124545 | 54 | 0 | 0.0 | 0.0 | 0.00 | 0.00 | 0.00 | 88 | 1013.5 |
| 20260505123645 | 54 | 0 | 0.0 | 0.0 | 0.00 | 0.00 | 0.00 | 88 | 1013.6 |
| 20260505123002 | 54 | 160 | 0.0 | 0.0 | 0.00 | 0.00 | 0.00 | 88 | 1014.0 |
| 20260505122745 | 54 | 0 | 0.0 | 0.0 | 0.00 | 0.00 | 0.00 | 88 | 1013.4 |
| 20260505121845 | 54 | 0 | 0.0 | 0.0 | 0.00 | 0.00 | 0.00 | 88 | 1013.5 |
| 20260505121631 | 54 | 160 | 0.0 | 0.0 | 0.00 | 0.00 | 0.00 | 88 | 1013.8 |
| 20260505120003 | 54 | 152 | 0.0 | 0.0 | 0.00 | 0.00 | 0.00 | 88 | 1013.9 |
| 20260505115145 | 54 | 0 | 0.0 | 0.0 | 0.00 | 0.00 | 0.00 | 88 | 1013.4 |
| 20260505114602 | 54 | 152 | 0.0 | 0.0 | 0.00 | 0.00 | 0.00 | 88 | 1013.9 |
| 20260505114245 | 55 | 0 | 0.0 | 0.0 | 0.00 | 0.00 | 0.00 | 88 | 1013.2 |
| 20260505113347 | 55 | 0 | 0.0 | 0.0 | 0.00 | 0.00 | 0.00 | 88 | 1013.2 |
| 20260505113007 | 54 | 152 | 0.0 | 0.0 | 0.00 | 0.00 | 0.00 | 88 | 1013.7 |
| 20260505112445 | 55 | 0 | 0.0 | 0.0 | 0.00 | 0.00 | 0.00 | 88 | 1013.2 |
| 20260505111603 | 54 | 150 | 0.0 | 0.0 | 0.00 | 0.00 | 0.00 | 88 | 1013.7 |
| 20260505111546 | 55 | 0 | 0.0 | 0.0 | 0.00 | 0.00 | 0.00 | 88 | 1013.2 |
| 20260505110646 | 55 | 0 | 0.0 | 0.0 | 0.00 | 0.00 | 0.00 | 88 | 1013.2 |
| 20260505102145 | 55 | 0 | 0.0 | 3.0 | 0.00 | 0.00 | 0.00 | 87 | 1013.0 |
| 20260505101602 | 55 | 139 | 0.0 | 2.0 | 0.00 | 0.00 | 0.00 | 86 | 1013.3 |
| 20260505101245 | 55 | 0 | 0.0 | 2.0 | 0.00 | 0.00 | 0.00 | 86 | 1012.8 |
| 20260505095446 | 55 | 172 | 1.0 | 3.0 | 0.00 | 0.00 | 0.00 | 86 | 1012.8 |
| 20260505094602 | 55 | 194 | 0.0 | 5.0 | 0.00 | 0.00 | 0.00 | 87 | 1013.3 |
| 20260505093645 | 55 | 150 | 1.0 | 4.0 | 0.00 | 0.00 | 0.00 | 86 | 1012.6 |
| 20260505093003 | 55 | 125 | 0.0 | 4.0 | 0.00 | 0.00 | 0.00 | 86 | 1013.2 |
| 20260505092746 | 55 | 162 | 0.0 | 4.0 | 0.00 | 0.00 | 0.00 | 87 | 1012.7 |
| 20260505091845 | 55 | 152 | 1.0 | 5.0 | 0.00 | 0.00 | 0.00 | 86 | 1012.6 |
| 20260505091604 | 55 | 192 | 0.0 | 5.0 | 0.00 | 0.00 | 0.00 | 86 | 1013.1 |
| 20260505090946 | 55 | 151 | 1.0 | 6.0 | 0.00 | 0.00 | 0.00 | 86 | 1012.7 |
| 20260505090045 | 55 | 206 | 1.0 | 5.0 | 0.00 | 0.00 | 0.00 | 86 | 1012.6 |
| 20260505090002 | 55 | 136 | 1.0 | 5.0 | 0.00 | 0.00 | 0.00 | 86 | 1013.1 |
| 20260505085146 | 55 | 208 | 1.0 | 5.0 | 0.00 | 0.00 | 0.00 | 86 | 1012.5 |
| 20260505084603 | 55 | 214 | 0.0 | 5.0 | 0.00 | 0.00 | 0.00 | 86 | 1013.0 |
| 20260505084246 | 55 | 176 | 1.0 | 5.0 | 0.00 | 0.00 | 0.00 | 86 | 1012.6 |
| 20260505083346 | 55 | 156 | 1.0 | 3.0 | 0.00 | 0.00 | 0.00 | 87 | 1012.5 |
| 20260505083105 | 55 | 190 | 0.0 | 3.0 | 0.00 | 0.00 | 0.00 | 87 | 1013.0 |
| 20260505082446 | 55 | 164 | 1.0 | 4.0 | 0.00 | 0.00 | 0.00 | 87 | 1012.5 |
| 20260505081504 | 55 | 118 | 0.0 | 4.0 | 0.00 | 0.00 | 0.00 | 87 | 1013.0 |
| 20260505080646 | 56 | 162 | 0.0 | 3.0 | 0.00 | 0.00 | 0.00 | 87 | 1012.5 |
| 20260505075745 | 56 | 184 | 1.0 | 3.0 | 0.00 | 0.00 | 0.00 | 87 | 1012.5 |
| 20260505074846 | 56 | 164 | 2.0 | 6.0 | 0.00 | 0.00 | 0.00 | 86 | 1012.5 |
| 20260505074503 | 55 | 112 | 2.0 | 7.0 | 0.00 | 0.00 | 0.00 | 86 | 1012.9 |
| 20260505073946 | 56 | 186 | 1.0 | 6.0 | 0.00 | 0.00 | 0.00 | 86 | 1012.4 |
| 20260505073103 | 55 | 176 | 1.0 | 6.0 | 0.00 | 0.00 | 0.00 | 87 | 1012.7 |
| 20260505073045 | 56 | 177 | 1.0 | 4.0 | 0.00 | 0.00 | 0.00 | 87 | 1012.2 |
| 20260505072146 | 56 | 190 | 1.0 | 6.0 | 0.00 | 0.00 | 0.00 | 87 | 1012.2 |
| 20260505071502 | 55 | 240 | 1.0 | 4.0 | 0.00 | 0.00 | 0.00 | 87 | 1012.5 |
| 20260505071246 | 55 | 199 | 1.0 | 4.0 | 0.00 | 0.00 | 0.00 | 87 | 1012.0 |
| 20260505070346 | 55 | 161 | 2.0 | 4.0 | 0.00 | 0.00 | 0.00 | 87 | 1011.9 |
| 20260505070104 | 55 | 101 | 0.0 | 7.0 | 0.00 | 0.00 | 0.00 | 87 | 1012.4 |
| 20260505064546 | 55 | 169 | 2.0 | 5.0 | 0.00 | 0.00 | 0.00 | 87 | 1011.7 |
| 20260505064504 | 55 | 149 | 2.0 | 5.0 | 0.00 | 0.00 | 0.00 | 87 | 1012.2 |
| 20260505063646 | 55 | 169 | 3.0 | 9.0 | 0.00 | 0.00 | 0.00 | 87 | 1011.7 |
| 20260505063103 | 55 | 252 | 2.0 | 10.0 | 0.00 | 0.00 | 0.00 | 87 | 1012.2 |
| 20260505062746 | 55 | 160 | 2.0 | 10.0 | 0.00 | 0.00 | 0.00 | 87 | 1011.7 |
| 20260505061846 | 55 | 175 | 2.0 | 9.0 | 0.00 | 0.00 | 0.00 | 87 | 1011.7 |
| 20260505061502 | 55 | 158 | 2.0 | 13.0 | 0.00 | 0.00 | 0.00 | 87 | 1012.2 |
| 20260505060946 | 55 | 191 | 2.0 | 11.0 | 0.00 | 0.00 | 0.00 | 87 | 1011.5 |
| 20260505060103 | 55 | 338 | 1.0 | 7.0 | 0.00 | 0.00 | 0.00 | 87 | 1012.0 |
| 20260505060046 | 55 | 173 | 2.0 | 7.0 | 0.00 | 0.00 | 0.00 | 87 | 1011.5 |
| 20260505054503 | 54 | 161 | 1.0 | 7.0 | 0.00 | 0.00 | 0.00 | 87 | 1012.0 |
| 20260505054246 | 55 | 191 | 1.0 | 7.0 | 0.00 | 0.00 | 0.00 | 87 | 1011.4 |
| 20260505053346 | 55 | 195 | 2.0 | 7.0 | 0.00 | 0.00 | 0.00 | 87 | 1011.4 |
| 20260505053108 | 54 | 167 | 1.0 | 7.0 | 0.00 | 0.00 | 0.00 | 87 | 1011.9 |
| 20260505052447 | 55 | 179 | 2.0 | 7.0 | 0.00 | 0.00 | 0.00 | 87 | 1011.5 |
| 20260505051546 | 55 | 179 | 2.0 | 7.0 | 0.00 | 0.00 | 0.00 | 87 | 1011.5 |
| 20260505051502 | 54 | 169 | 1.0 | 7.0 | 0.00 | 0.00 | 0.00 | 88 | 1011.9 |
| 20260505050646 | 55 | 177 | 1.0 | 5.0 | 0.00 | 0.00 | 0.00 | 87 | 1011.3 |
| 20260505041501 | 55 | 226 | 1.0 | 7.0 | 0.00 | 0.00 | 0.00 | 86 | 1011.3 |
| 20260505041246 | 56 | 202 | 2.0 | 7.0 | 0.00 | 0.00 | 0.00 | 85 | 1010.8 |
| 20260505040346 | 56 | 203 | 2.0 | 7.0 | 0.00 | 0.00 | 0.00 | 85 | 1010.8 |
| 20260505040104 | 55 | 234 | 2.0 | 7.0 | 0.00 | 0.00 | 0.00 | 85 | 1011.3 |
| 20260505035446 | 56 | 218 | 2.0 | 7.0 | 0.00 | 0.00 | 0.00 | 85 | 1010.8 |
| 20260505034546 | 56 | 164 | 2.0 | 10.0 | 0.00 | 0.00 | 0.00 | 84 | 1010.7 |
| 20260505034501 | 56 | 223 | 1.0 | 10.0 | 0.00 | 0.00 | 0.00 | 84 | 1011.1 |
| 20260505033646 | 56 | 202 | 2.0 | 9.0 | 0.00 | 0.00 | 0.00 | 84 | 1010.5 |
| 20260505033116 | 56 | 158 | 3.0 | 8.0 | 0.00 | 0.00 | 0.00 | 84 | 1010.9 |
| 20260505032746 | 57 | 217 | 2.0 | 7.0 | 0.00 | 0.00 | 0.00 | 83 | 1010.4 |
| 20260505031846 | 57 | 137 | 2.0 | 11.0 | 0.00 | 0.00 | 0.00 | 82 | 1010.4 |
| 20260505031501 | 57 | 188 | 2.0 | 11.0 | 0.00 | 0.00 | 0.00 | 82 | 1010.7 |
| 20260505030946 | 58 | 117 | 2.0 | 12.0 | 0.00 | 0.00 | 0.00 | 81 | 1010.3 |
| 20260505030046 | 59 | 271 | 3.0 | 12.0 | 0.00 | 0.00 | 0.00 | 80 | 1010.2 |
| 20260505025147 | 60 | 236 | 2.0 | 11.0 | 0.00 | 0.00 | 0.00 | 78 | 1010.1 |
| 20260505024503 | 60 | 5 | 2.0 | 8.0 | 0.00 | 0.00 | 0.00 | 77 | 1010.5 |